Simultaneous Nadir Overpasses (SNOs) Predictions

Prediction of SNOs between NOAA-20 and AQUA Satellite Orbit:

Table of predicted SNOs for the next 14.0 days since TLE Epoch: 12/20/2019
Index Date (NOAA-20) Time (NOAA-20) Lat,Lon (NOAA-20) SZA (NOAA-20 ) Date (AQUA) Time (AQUA) Lat,Lon (AQUA) SZA (AQUA ) Distance(km) Time Diff (sec)
1 12/23/2019 05:56:04 75.40, -31.88 120.66 12/23/2019 05:56:58 75.39, -31.96 120.63 2.25 54
2 12/23/2019 06:46:31 -76.27, 138.31 60.34 12/23/2019 06:46:07 -76.27, 138.33 60.32 0.78 24
3 12/25/2019 22:12:56 75.60, 84.52 120.46 12/25/2019 22:13:22 75.60, 84.53 120.43 0.40 26
4 12/25/2019 23:03:16 -76.78,-104.02 60.92 12/25/2019 23:02:25 -76.76,-104.12 60.85 2.67 51
5 12/28/2019 13:40:11 -72.59, 25.34 56.34 12/28/2019 13:41:25 -72.53, 25.65 56.46 12.29 74
6 12/28/2019 14:29:48 75.85,-158.92 120.14 12/28/2019 14:29:46 75.86,-158.84 120.12 2.45 2
7 12/28/2019 15:16:23 -80.63, 84.15 73.30 12/28/2019 15:15:10 -81.28, 85.59 72.96 76.58 73
8 12/31/2019 05:56:17 -75.11, 147.25 59.12 12/31/2019 05:57:04 -75.12, 147.32 59.18 2.00 47
9 12/31/2019 06:46:31 76.50, -40.87 119.30 12/31/2019 06:46:02 76.49, -40.94 119.34 2.02 29
10 01/02/2020 22:12:58 -75.88, -94.61 60.12 01/02/2020 22:13:18 -75.87, -94.69 60.12 2.47 20




NCC Satellite Simultaneous Nadir Overpasses (SNOs) Prediction Service
